Home   Weather   Jacksonville   Past weeks

Flag for USA Past Weather in Jacksonville, North Carolina, USA — Yesterday and Last 2 Weeks

Now
78 °F

Partly sunny.


Feels Like: 80 °F
Forecast: 69 / 80 °F
Wind: 8 mph from Northeast

Location: Jacksonville - New River

Current Time: Sep 25, 2016 at 11:44:09 AM

Latest Report: Sep 25, 2016 at 10:56 AM


Visibility: 10 mi

Pressure: 30.14 "Hg

Humidity: 71%

Dew Point: 68 °F

Location of JacksonvilleLocation

Past Weather in Jacksonville — Graph

°F

Jacksonville Temperature Yesterday

Maximum temperature yesterday: 87 °F (at 3:56 PM)
Minimum temperature yesterday: 70 °F (at 6:56 AM)
Average temperature yesterday: 77 °F

High & Low Weather Summary for the Past Weeks

 TemperatureHumidityPressure
High90 °F (Sep 11, 2:56 PM)97% (Sep 21, 1:03 AM)30.21 "Hg (Sep 21, 1:03 AM)
Low69 °F (Sep 14, 1:56 AM)48% (Sep 24, 2:56 PM)29.88 "Hg (Sep 19, 3:56 PM)
Average77 °F83%30.04 "Hg
* Reported Sep 10 9:56 AM — Sep 25 9:56 AM, Jacksonville, Weather by CustomWeather, © 2016

Note: Actual official high and low records may vary slightly from our data, if they occured in-between our weather recording intervals... More about our weather records

Advertising

Jacksonville Weather History for the Previous 24 Hours

Scroll right to see more
 ConditionsComfort  
Time TempWeatherWind HumidityBarometerVisibility
9:56 AM
Sun, Sep 25
75 °FCloudy.8 mph79%30.13 "Hg10 mi
8:56 AM74 °FPassing clouds.7 mph85%30.12 "Hg10 mi
7:56 AM72 °FOvercast.5 mph91%30.12 "Hg9 mi
6:56 AM71 °FPassing clouds.6 mph93%30.10 "Hg7 mi
5:56 AM72 °FPassing clouds.5 mph91%30.08 "Hg7 mi
4:56 AM73 °FPassing clouds.6 mph90%30.06 "Hg8 mi
3:56 AM72 °FClear.5 mph93%30.06 "Hg9 mi
2:56 AM74 °FClear.5 mph88%30.05 "Hg10 mi
1:56 AM74 °FClear.5 mph91%30.06 "Hg10 mi
12:56 AM71 °FClear.No wind93%30.05 "Hg8 mi
11:56 PM
Sat, Sep 24
72 °FClear.No wind91%30.04 "Hg10 mi
10:56 PM72 °FClear.No wind93%30.05 "Hg8 mi
9:56 PM73 °FClear.No wind94%30.04 "Hg10 mi
8:56 PM75 °FMild.3 mph88%30.03 "Hg10 mi
7:56 PM75 °FClear.No wind88%30.02 "Hg10 mi
6:56 PM83 °FSunny.3 mph61%30.01 "Hg10 mi
5:56 PM86 °FSunny.6 mph53%30.01 "Hg10 mi
4:56 PM87 °FSunny.3 mph48%30.00 "Hg10 mi
3:56 PM87 °FSunny.3 mph48%30.00 "Hg10 mi
2:56 PM86 °FSunny.6 mph48%30.01 "Hg10 mi
1:56 PM85 °FSunny.5 mph51%30.02 "Hg10 mi
12:56 PM84 °FSunny.5 mph57%30.04 "Hg10 mi
11:56 AM82 °FPassing clouds.7 mph63%30.06 "Hg10 mi
Weather by CustomWeather, © 2016

See weather overviewHow to use our weather pages